Theta_e
312 313 312 311 311 311 311 311 311 312 313 314 316 317 319 321 323 325 327 328 329 329 329 329 329 329 329 329 329 330 330 331 331 331 331 330 330 329 329 328 327 327 326 326 326 325 324 323 322 322 321 320 319 317 315 314 313 310 308 305 303 298
314 315 314 314 313 312 312 312 312 312 312 313 314 315 317 318 320 322 324 326 327 328 328 328 328 329 329 329 329 329 330 330 331 331 330 330 330 329 329 328 327 327 326 325 325 325 323 322 321 321 321 320 318 316 314 312 310 308 305 303 300 296
313 314 314 313 313 312 312 312 312 312 312 312 313 314 315 317 318 321 323 325 326 327 327 327 327 328 328 328 329 329 330 330 330 330 330 329 329 329 328 328 327 326 325 324 324 324 323 321 321 320 320 319 317 315 313 311 308 306 303 300 296 293
311 313 312 311 311 310 310 310 310 311 311 311 312 313 314 316 318 321 323 325 326 326 326 326 327 327 328 328 328 329 329 330 330 330 329 329 329 328 328 327 327 325 324 323 323 323 322 321 321 320 320 319 316 314 311 308 306 303 299 296 294 292
311 312 311 310 310 309 309 308 308 309 309 310 311 312 312 314 316 319 322 324 325 325 325 325 326 326 327 327 327 328 329 329 329 329 329 329 328 328 327 327 326 325 323 322 322 322 321 321 320 319 319 318 316 314 310 306 305 302 297 294 293 292
311 311 309 309 309 308 308 308 308 309 310 311 311 313 313 313 314 316 319 321 322 323 323 323 323 324 325 326 327 327 328 328 329 328 328 328 327 327 327 326 326 325 323 322 321 321 321 320 318 318 317 317 316 314 309 305 304 301 296 293 292 292
313 309 309 310 309 308 309 309 309 310 312 312 312 313 314 314 315 316 317 318 318 318 319 319 320 321 322 324 325 325 326 326 327 327 327 327 327 327 326 326 325 324 323 321 321 321 321 319 318 318 317 316 316 314 309 304 302 298 294 292 292 292
315 310 309 311 310 309 309 310 311 311 312 312 312 312 313 314 316 316 315 316 315 315 315 316 318 320 321 323 323 324 325 325 326 327 327 327 327 326 326 325 324 323 322 321 321 320 319 318 317 317 317 316 315 312 306 302 299 295 293 292 291 291
320 313 310 311 311 310 310 310 311 311 311 312 312 312 312 313 314 314 314 313 313 312 313 314 316 318 320 321 322 323 324 324 325 325 325 325 325 326 325 324 323 322 322 321 321 320 318 316 316 316 315 315 314 310 303 298 296 293 292 291 291 291
328 318 310 310 312 311 310 311 311 311 311 311 311 311 311 311 311 311 311 311 310 310 310 311 313 315 317 318 320 321 321 322 323 323 323 323 323 324 324 324 323 321 319 318 319 319 317 316 316 315 315 314 312 308 301 296 294 292 291 290 290 290
333 323 311 309 311 310 310 311 310 311 310 310 310 310 310 309 309 308 308 307 307 308 307 307 308 311 313 315 317 318 319 320 321 321 321 321 321 322 322 322 321 319 317 315 315 316 316 316 316 316 315 314 310 306 299 294 293 292 290 290 289 289
332 322 309 308 311 310 309 310 310 310 310 309 309 309 308 308 307 305 305 304 305 305 306 306 306 307 308 310 313 315 317 318 318 319 319 319 319 319 319 319 318 317 316 314 313 313 314 314 314 315 315 313 310 305 298 294 292 291 290 290 289 288
332 325 313 309 311 310 309 310 309 309 309 309 309 308 308 307 306 305 304 304 304 305 306 307 307 307 308 308 309 311 313 315 316 316 317 316 316 316 316 315 314 313 313 313 312 312 312 313 314 315 314 311 308 304 298 293 292 291 290 290 289 289
333 331 319 311 310 311 310 310 309 309 309 309 308 308 307 306 305 305 305 304 305 306 306 307 308 309 309 309 309 310 311 312 313 314 314 314 314 314 313 312 312 311 311 310 310 309 310 312 314 315 314 310 306 302 297 293 292 291 290 289 289 289
323 318 314 311 311 311 310 310 309 309 309 309 308 308 306 305 305 305 305 305 305 306 307 308 309 309 309 310 310 310 310 311 311 312 313 313 313 312 311 311 310 309 309 309 308 308 308 310 312 312 311 308 304 299 295 293 292 291 290 289 289 289
314 311 312 312 311 311 310 310 309 308 309 308 308 307 306 304 304 305 305 305 305 306 307 308 309 309 309 309 309 309 309 310 310 310 311 311 311 310 310 309 309 308 308 308 307 307 307 310 311 309 307 304 301 296 293 292 291 290 290 289 289 289
311 311 313 312 311 311 310 309 309 308 308 308 307 307 306 304 304 305 305 305 305 306 307 308 309 308 308 308 308 308 308 308 308 308 308 309 309 308 308 307 307 307 306 306 306 306 308 309 309 307 304 301 297 294 292 291 290 290 289 289 288 289
311 312 312 311 311 310 309 308 308 307 307 307 307 306 305 303 303 304 305 305 305 306 306 307 308 307 306 306 306 306 307 306 306 306 306 306 306 306 305 305 305 305 304 304 304 306 307 307 305 303 301 298 294 292 290 290 289 289 288 288 288 288
312 312 311 311 310 309 308 308 307 306 306 306 305 304 303 302 302 303 304 305 305 305 306 307 307 306 305 305 305 305 305 306 305 305 305 305 304 304 304 304 304 304 303 303 303 304 306 306 304 301 298 295 292 291 290 289 289 288 288 287 288 288
310 310 310 309 309 308 308 307 306 306 305 304 304 302 301 301 301 302 303 304 305 305 305 306 306 306 306 306 306 306 305 305 305 304 304 304 304 304 304 303 302 302 302 303 304 305 306 306 304 301 297 293 291 290 290 289 288 287 287 287 287 287
308 308 308 307 307 306 306 306 305 304 304 303 302 300 299 300 301 301 302 303 304 305 305 305 306 306 306 306 306 306 306 305 304 304 304 303 303 303 302 301 301 301 301 302 303 302 303 303 301 298 295 291 289 289 289 288 288 287 287 287 286 286
305 305 305 305 305 305 304 304 304 303 303 302 301 300 299 299 299 300 302 302 303 304 305 305 306 306 306 306 306 305 305 304 303 303 302 301 301 301 300 300 300 300 301 301 301 300 299 299 298 296 293 290 289 288 288 288 287 287 287 286 286 286
302 303 303 303 303 303 303 303 303 302 301 301 300 300 299 299 299 299 300 302 302 303 303 304 305 305 305 305 305 304 303 303 303 303 302 300 299 299 299 300 300 300 300 300 299 298 297 296 296 295 292 289 288 288 288 287 287 287 287 286 286 286
300 300 300 301 301 301 301 302 302 301 300 300 300 300 300 299 299 298 299 301 301 302 302 303 303 304 304 303 303 302 302 302 301 301 301 300 300 300 300 300 299 299 298 297 297 296 295 294 294 293 291 289 288 287 287 287 287 287 287 286 286 286
298 297 298 298 299 300 300 301 300 300 299 299 299 299 299 299 299 298 299 299 300 300 301 301 301 302 301 301 301 300 300 300 299 299 299 299 298 298 297 297 296 295 294 293 292 292 291 291 291 290 290 289 288 287 286 286 286 286 286 286 286 286
295 295 296 296 297 298 299 300 300 299 298 298 298 298 298 298 298 298 298 298 298 299 299 299 299 299 299 298 298 298 298 297 297 296 296 296 295 295 294 293 292 291 291 290 289 289 289 289 289 289 289 288 287 286 286 285 285 285 285 285 286 286
293 293 294 294 296 297 298 299 299 297 296 296 296 297 297 297 297 297 297 297 297 297 297 297 297 297 297 296 296 296 296 296 295 295 294 293 293 292 292 291 290 289 289 288 288 288 288 288 288 288 288 287 287 286 285 284 284 285 285 285 285 285
292 292 292 292 294 295 296 297 297 295 294 295 296 296 296 296 296 296 295 295 295 295 295 295 294 294 294 294 294 294 295 295 295 293 293 292 291 291 290 290 289 288 287 287 287 287 287 287 287 287 288 288 287 286 285 284 284 284 284 284 285 285
291 291 290 290 291 292 293 294 294 293 294 294 295 295 295 295 295 294 293 293 293 293 293 293 292 292 292 292 292 292 292 293 293 292 291 291 290 289 288 288 288 287 286 286 286 286 286 286 286 287 287 287 287 287 286 285 284 284 284 284 284 284
291 291 289 287 288 290 291 291 292 292 293 294 294 294 294 294 293 293 292 292 292 292 291 292 291 291 291 290 290 291 291 291 291 291 291 290 290 289 289 288 288 287 287 287 286 286 285 285 286 286 287 287 287 287 286 285 284 283 283 283 283 283
290 289 287 286 287 289 290 290 291 292 293 293 293 294 294 293 292 292 291 291 291 290 290 290 290 290 290 290 289 289 289 289 289 289 289 289 289 289 288 288 287 287 287 287 286 286 285 285 286 287 287 286 286 286 286 286 285 284 283 283 283 282
288 287 285 285 287 289 289 289 290 291 292 292 292 293 294 293 292 291 290 290 290 290 289 289 289 288 289 289 288 288 288 288 288 288 288 288 288 287 287 287 286 286 286 286 286 286 286 286 286 286 286 285 285 285 285 285 286 285 284 283 283 282
287 286 284 285 287 288 289 289 289 290 291 291 291 292 293 293 292 290 289 289 289 289 289 289 288 288 288 287 287 287 287 287 287 287 287 287 287 287 286 286 286 286 285 285 285 285 285 285 285 285 285 285 285 285 285 285 285 285 284 283 283 282
285 284 283 284 286 287 287 287 288 288 289 290 290 290 292 293 292 290 289 288 288 288 288 288 288 287 287 287 286 286 286 286 286 286 286 286 286 286 286 285 285 285 285 285 285 284 284 284 284 284 284 284 284 284 284 284 284 284 284 283 283 282
282 282 282 284 285 285 286 286 286 287 289 289 289 290 291 291 291 290 289 288 288 288 288 288 287 287 287 287 286 286 286 285 285 285 285 285 285 285 285 285 285 285 285 285 284 284 284 284 283 283 283 283 283 283 283 283 283 283 283 283 283 282
281 281 283 284 284 285 285 285 285 286 288 288 288 289 290 290 289 289 288 287 287 287 287 286 286 286 286 285 285 285 284 284 284 284 284 284 284 284 285 285 285 284 284 284 284 284 283 283 283 282 282 282 282 282 282 282 282 282 283 283 283 282
280 280 281 283 283 284 284 283 283 285 286 287 287 289 289 288 288 287 286 286 286 286 285 284 284 284 284 283 283 283 283 283 283 283 283 282 282 282 283 283 283 283 283 283 283 283 283 282 282 282 281 281 281 281 281 281 282 282 283 283 283 282
279 279 280 281 281 282 281 280 281 283 284 285 286 287 287 286 286 285 284 284 284 284 283 283 283 283 283 283 283 283 283 283 283 283 282 282 281 281 281 281 282 282 282 282 282 282 282 282 281 281 281 281 281 280 281 281 281 282 282 282 282 282
Wind_Speed
8 10 11 13 14 15 17 19 21 23 25 27 28 29 29 30 30 31 32 33 34 34 34 35 36 36 36 35 33 32 32 33 33 34 34 34 33 34 35 36 37 37 38 36 36 35 35 34 33 32 32 29 26 25 24 24 25 26 27 26 27 28
3 5 7 8 9 11 12 13 16 18 21 22 24 25 25 25 27 28 30 31 32 31 31 31 32 33 33 32 31 31 32 32 32 33 33 32 32 33 34 35 36 38 38 37 36 36 35 34 33 32 31 28 26 24 24 25 26 27 27 27 28 27
3 4 6 7 9 11 12 13 14 16 17 19 20 21 22 22 24 25 26 27 28 28 28 28 29 30 30 30 31 31 31 31 32 32 31 31 32 32 33 34 36 38 39 37 37 36 36 35 34 32 30 27 25 24 24 25 26 27 28 29 28 27
6 7 8 9 10 12 13 14 15 15 16 16 17 18 19 20 20 20 21 21 23 24 24 24 24 26 27 28 29 30 29 29 30 31 31 30 31 31 32 33 36 38 38 37 37 37 36 35 35 34 31 29 26 24 24 25 27 29 30 30 30 28
6 7 8 8 9 10 11 12 14 15 15 15 15 16 17 18 18 18 18 19 19 20 20 21 21 22 24 25 27 27 27 27 28 29 30 30 31 31 32 32 35 37 37 37 37 37 36 35 35 34 32 30 27 26 26 27 29 31 32 31 31 29
4 4 6 7 7 8 8 9 10 11 12 13 14 14 14 16 17 18 19 19 19 20 21 22 23 23 24 25 26 26 25 25 26 27 28 29 30 31 31 32 34 37 37 37 37 37 37 37 36 34 31 29 28 27 28 29 31 33 32 31 31 30
4 5 7 7 7 7 8 8 8 9 10 12 14 14 14 15 16 18 19 20 21 22 23 23 23 24 25 26 27 27 26 26 26 27 28 30 31 31 31 31 33 36 37 38 38 38 38 39 37 35 32 30 27 27 30 32 32 33 32 31 31 29
5 7 8 9 9 9 10 11 11 11 11 11 12 14 15 16 16 15 16 17 17 19 21 21 21 22 23 24 25 26 26 26 26 26 27 30 31 31 31 32 34 35 37 37 38 38 38 39 38 36 34 31 29 29 31 33 34 33 32 31 30 28
6 7 9 10 11 12 13 14 14 14 13 12 12 12 13 14 15 14 13 13 13 14 17 19 21 21 21 22 23 24 25 26 27 26 26 27 29 30 31 32 34 35 36 38 38 38 38 38 37 35 33 31 30 31 33 34 34 33 32 31 29 27
6 6 9 11 12 13 14 15 16 16 15 14 13 12 12 14 15 16 15 14 14 15 15 17 19 21 21 21 21 22 24 25 26 27 27 28 28 30 31 32 33 34 35 37 38 39 39 38 37 35 32 30 31 33 35 36 35 34 33 31 29 27
6 6 9 11 13 14 14 15 16 16 16 16 16 15 15 15 15 15 15 15 15 15 14 15 16 17 19 20 20 20 21 22 22 23 24 25 27 28 30 31 32 33 34 35 36 37 38 38 38 36 33 32 33 35 36 37 36 35 34 32 30 28
6 7 8 11 14 16 16 17 17 18 18 18 18 18 17 16 14 13 12 12 13 12 12 12 12 13 15 17 18 18 18 19 20 21 22 23 25 27 28 29 29 31 33 34 35 36 38 38 37 35 33 32 34 36 38 37 36 35 34 33 32 30
7 6 8 12 15 16 17 17 18 19 20 20 20 19 18 17 16 14 12 11 10 10 10 10 10 11 12 13 15 16 16 17 17 18 20 22 23 24 25 26 27 28 31 33 35 37 37 38 36 34 32 32 34 37 40 39 37 36 35 34 33 32
7 7 9 12 13 14 15 16 17 19 20 21 21 19 18 17 17 15 13 11 10 10 10 11 11 11 12 13 14 15 16 17 17 17 18 19 20 22 22 23 25 26 29 31 33 35 36 37 36 34 32 33 35 38 40 39 38 37 36 34 33 32
8 10 12 13 12 13 13 14 16 18 19 19 19 18 18 17 17 15 13 11 11 11 11 11 11 11 12 13 14 15 17 17 18 19 19 19 20 20 21 22 23 25 28 31 32 33 34 35 34 33 32 33 36 38 40 39 38 38 36 35 34 33
10 12 14 13 12 11 11 12 14 15 15 16 17 18 18 17 17 16 14 13 12 12 12 12 12 12 12 13 14 15 16 17 18 19 19 20 20 21 22 22 23 25 28 31 32 32 32 32 32 31 31 33 36 38 39 38 37 37 36 35 34 33
11 13 14 13 11 11 10 11 13 13 13 15 17 18 17 17 18 18 16 15 14 14 14 13 13 13 13 13 13 14 15 15 16 17 18 18 19 20 21 22 24 25 27 29 31 30 30 30 30 29 31 33 36 37 37 37 36 36 35 35 34 32
12 13 13 12 11 12 12 12 13 13 14 15 17 17 17 17 18 19 18 17 16 15 15 14 13 13 12 13 13 13 14 14 15 16 16 17 17 18 20 21 23 24 26 28 29 29 29 28 27 28 31 34 36 36 35 35 35 35 35 34 33 32
11 11 11 11 12 13 13 13 14 15 16 16 17 17 17 17 19 20 20 18 17 15 14 14 13 12 12 12 12 13 13 13 14 15 15 16 16 17 19 20 22 23 25 27 28 27 27 27 26 28 31 35 36 36 36 35 34 34 34 34 33 32
9 10 11 12 12 12 12 13 14 15 16 16 16 17 17 18 19 19 19 18 16 15 14 13 13 13 13 13 13 13 13 13 14 15 15 15 16 17 18 19 21 22 24 26 27 26 26 26 26 28 32 36 37 37 37 36 35 34 33 33 33 32
8 8 9 10 10 10 10 12 13 15 15 15 14 15 15 16 17 17 18 18 16 15 14 13 14 13 13 13 13 13 13 14 14 14 14 15 15 16 18 19 20 22 23 24 25 25 25 26 26 29 33 36 37 38 38 37 35 34 33 33 33 32
5 6 6 7 8 9 10 11 13 13 13 12 12 12 12 13 14 15 16 16 15 15 14 14 14 13 13 13 12 12 12 13 14 15 15 15 15 16 17 18 19 20 20 21 22 23 25 26 26 30 34 36 36 37 37 36 36 36 35 34 33 32
5 6 6 7 8 8 10 12 13 13 12 12 11 10 9 10 11 14 15 14 14 14 14 14 14 13 13 13 12 12 12 12 13 14 14 15 15 16 16 16 17 18 18 19 21 22 24 26 27 29 33 36 37 37 37 37 37 37 36 35 34 34
10 10 9 8 9 9 10 13 13 13 13 12 11 9 7 6 9 13 14 14 13 13 13 13 12 12 12 13 13 13 13 13 13 13 13 14 15 16 16 16 17 18 18 19 21 22 24 26 28 29 33 36 38 37 38 38 37 36 36 35 35 35
12 11 9 8 9 10 11 13 13 13 12 11 9 8 7 7 9 12 13 13 13 13 12 12 12 11 12 12 13 13 13 14 14 13 13 14 15 15 16 16 16 17 17 18 19 21 23 25 26 27 30 34 37 37 37 36 34 34 34 34 35 35
14 12 10 8 8 9 10 12 14 14 12 10 9 9 9 9 10 12 13 13 13 13 12 11 10 10 11 11 12 12 13 13 13 13 13 13 14 14 14 14 15 15 16 17 18 19 20 22 23 24 26 30 33 35 35 33 31 30 31 31 32 33
16 15 13 10 9 10 9 10 12 14 12 10 9 10 10 11 11 12 12 12 12 11 11 10 9 9 9 9 10 11 12 12 12 12 12 12 12 13 13 13 14 15 16 17 18 19 20 20 21 22 24 26 30 32 33 33 31 29 29 29 30 30
17 16 15 13 12 12 11 10 11 12 11 9 8 8 9 10 11 11 11 10 10 9 8 8 8 7 6 7 8 9 10 11 11 11 11 11 12 12 13 13 14 15 16 16 17 18 19 21 22 23 24 25 27 29 31 32 32 31 29 28 28 27
15 14 15 15 13 13 14 14 13 12 10 9 8 8 9 10 11 12 11 10 9 9 7 7 7 7 6 6 6 7 7 8 9 10 10 11 12 12 13 14 15 16 16 17 18 18 19 21 23 24 25 25 26 27 29 31 31 31 30 28 27 27
14 14 15 15 14 15 16 16 15 13 12 11 10 9 10 11 12 12 12 11 10 9 8 7 7 7 6 6 5 6 6 7 8 9 9 10 11 12 13 14 16 17 18 18 19 18 18 20 24 26 28 28 27 28 28 29 30 31 31 30 28 27
16 16 16 15 15 16 17 17 16 14 14 13 11 10 12 14 13 13 12 11 10 10 8 7 6 5 5 6 5 4 4 4 6 8 9 9 9 11 12 13 15 16 18 18 19 19 19 22 25 27 28 28 28 28 28 28 30 31 31 30 29 27
18 19 19 16 16 17 18 17 16 15 14 13 11 10 13 15 15 15 13 12 11 10 8 8 7 5 4 4 4 4 2 2 3 5 7 8 9 10 11 12 13 14 15 16 18 19 20 22 24 24 23 24 26 27 26 27 27 28 28 28 27 25
20 21 20 18 18 19 18 18 17 15 14 13 11 10 12 14 16 16 14 12 12 10 9 9 8 6 5 4 3 2 2 2 2 4 5 7 8 10 11 12 14 14 14 14 16 17 19 20 21 21 21 21 23 24 26 26 26 26 26 26 25 25
20 21 20 19 19 19 18 18 17 15 14 14 12 10 10 12 14 16 14 13 12 10 9 9 8 6 6 5 3 2 1 1 2 4 5 5 6 8 10 12 14 15 16 16 16 17 17 17 18 19 20 20 20 21 23 24 25 25 25 25 25 27
20 21 21 21 21 20 19 19 17 15 15 14 12 11 11 12 14 15 15 13 12 11 10 9 8 7 6 5 5 4 3 2 2 3 4 5 6 7 7 8 10 13 15 17 18 19 19 18 17 17 18 18 19 20 20 21 23 25 25 25 26 29
22 22 22 22 22 21 20 19 17 16 16 15 13 13 14 15 15 16 15 14 13 12 12 10 10 9 8 7 6 5 4 4 2 2 3 5 7 8 8 8 8 9 10 12 14 16 18 19 19 19 19 18 18 19 19 19 21 23 24 26 28 29
23 22 21 21 21 22 21 20 17 16 16 15 14 14 15 16 16 16 16 15 13 13 13 11 11 9 9 8 7 6 5 4 3 2 3 4 5 7 8 9 9 9 10 10 10 10 12 14 17 18 19 19 19 19 18 18 19 21 23 25 28 29
24 21 20 20 21 21 21 19 16 16 15 14 14 15 16 17 16 16 16 15 13 12 12 11 10 9 8 7 6 5 4 4 2 2 2 3 4 5 7 9 9 9 9 10 10 9 9 10 12 13 15 16 17 17 17 19 22 24 24 26 29 30
Wind_Direction
210 210 213 217 217 219 220 221 222 222 223 223 223 225 225 225 225 225 225 224 224 225 225 224 223 223 222 220 219 218 217 218 217 215 215 216 216 217 218 218 217 213 210 210 210 208 207 207 207 206 207 210 213 214 217 220 217 208 201 196 192 187
187 188 192 199 202 209 213 213 215 217 221 223 223 225 226 225 226 226 226 226 225 225 225 225 224 223 223 221 219 219 219 219 218 216 216 217 217 219 219 219 218 215 211 209 208 206 205 204 204 206 208 212 215 216 219 217 210 204 198 191 189 187
170 188 194 197 200 208 213 214 215 215 217 220 221 223 224 224 224 225 227 226 225 225 225 224 223 222 222 221 219 220 221 221 220 218 216 216 217 218 219 220 219 216 213 209 206 205 205 204 204 206 209 212 215 217 219 214 205 200 194 188 186 186
188 194 198 203 208 213 217 217 217 217 219 220 222 224 224 224 223 223 225 225 223 223 222 221 220 220 221 221 220 221 223 223 221 219 218 217 218 220 221 221 219 216 212 208 206 205 205 206 206 207 209 211 214 215 214 209 201 196 190 186 186 185
191 191 196 205 213 217 219 220 219 218 220 219 219 223 223 221 220 219 221 221 218 216 217 218 219 220 221 221 221 222 223 223 221 220 220 220 221 222 223 223 220 216 211 207 205 205 205 206 207 206 207 208 211 212 209 205 200 195 191 189 188 186
195 206 213 213 215 219 223 226 222 214 211 209 207 211 215 215 215 218 220 220 219 219 221 224 226 226 226 225 224 225 225 226 225 223 224 224 223 223 223 223 222 218 212 207 204 204 205 206 205 205 206 207 209 212 208 202 199 196 194 193 190 188
211 225 230 223 217 220 220 218 215 206 203 203 202 202 201 200 205 213 219 222 224 226 228 231 233 233 233 232 231 231 232 232 231 229 228 227 224 222 222 222 221 217 213 209 206 206 207 206 205 204 205 206 209 212 208 201 198 197 197 196 194 192
219 217 217 214 210 212 210 205 203 202 202 204 206 206 201 198 199 205 212 219 224 228 230 231 231 231 232 232 232 232 231 231 231 229 227 224 221 221 223 224 222 218 214 211 209 208 208 205 203 204 204 204 206 208 205 200 197 197 197 196 195 194
222 215 211 210 210 210 208 204 201 200 200 201 204 208 206 204 203 202 205 211 218 224 226 226 228 229 230 232 232 232 232 232 234 234 232 229 225 225 225 224 222 220 217 214 212 211 209 204 202 204 203 204 205 204 200 197 195 195 195 196 195 194
220 211 208 209 209 210 209 207 205 203 203 202 200 203 207 208 210 211 211 213 217 222 223 221 223 225 228 231 231 230 230 231 232 233 233 232 228 227 227 226 225 221 217 213 212 211 208 204 203 204 203 205 205 202 198 195 193 193 193 193 194 193
214 203 205 207 207 210 210 209 209 208 208 207 204 204 207 211 216 216 216 219 222 225 229 229 227 224 225 227 228 228 229 229 230 231 231 230 228 227 228 228 226 222 216 211 209 208 206 204 204 205 205 206 204 200 196 194 193 192 191 191 191 192
209 199 197 202 204 208 210 209 211 212 212 211 210 209 210 212 216 217 218 224 228 230 235 239 239 235 229 227 228 228 228 228 229 230 230 230 228 228 227 226 224 221 216 212 208 206 204 204 204 205 207 209 206 199 195 193 192 192 192 191 189 189
203 198 197 206 209 211 213 214 215 216 216 216 216 215 213 211 211 213 217 221 223 225 229 231 232 233 231 228 227 228 229 229 229 230 229 228 226 226 226 225 223 219 215 211 208 205 205 205 205 207 209 210 207 201 195 192 192 193 194 193 191 190
202 204 212 219 219 219 221 219 216 216 217 219 220 218 213 210 209 210 214 215 213 215 220 223 224 224 225 224 223 223 226 229 231 232 231 229 228 227 226 225 223 219 215 211 208 206 206 205 206 208 210 209 207 202 197 194 193 193 193 194 194 193
204 210 220 229 232 233 234 227 220 222 224 222 220 216 210 207 207 209 211 210 208 212 217 219 220 221 222 222 221 220 221 222 224 226 228 229 229 228 226 225 224 220 216 212 210 209 207 206 206 208 209 208 205 201 199 196 195 194 194 195 196 196
209 214 224 235 242 243 241 234 230 233 231 223 217 212 208 205 203 205 209 208 206 210 214 216 218 220 221 221 219 220 220 220 221 221 223 225 225 224 224 223 222 220 217 215 213 211 209 209 210 210 209 207 203 200 200 199 197 196 197 197 199 199
207 214 224 233 238 236 232 231 230 227 222 216 212 210 208 204 201 202 205 206 205 207 211 214 216 217 218 218 218 218 219 220 220 220 221 222 223 223 223 221 220 218 217 215 213 211 211 213 213 211 208 204 200 199 199 199 198 197 198 199 200 202
209 216 225 227 226 225 225 225 222 214 210 210 209 209 207 203 201 201 202 204 205 207 211 214 215 215 216 217 218 219 221 221 221 220 220 221 221 221 221 220 219 218 215 213 212 211 213 215 214 210 206 202 200 199 199 199 198 198 198 199 201 202
211 216 221 218 216 220 220 218 213 205 200 201 204 205 202 200 202 202 202 203 205 207 210 214 216 216 217 218 220 222 224 225 224 222 219 218 217 218 219 219 219 218 215 213 212 212 214 217 216 211 205 202 201 200 200 200 199 198 198 200 201 203
210 208 211 208 208 215 215 210 205 197 193 195 198 199 197 200 204 203 202 202 204 206 209 214 219 220 219 220 222 225 228 228 226 223 219 218 217 218 219 218 217 216 214 213 214 215 218 221 219 213 206 203 203 203 202 201 199 198 198 200 202 204
210 207 209 204 201 206 206 202 197 192 189 189 193 196 197 200 204 205 203 203 203 206 208 212 219 223 224 225 225 226 229 228 224 220 217 217 218 218 217 214 213 213 213 214 216 218 221 224 221 214 208 205 205 205 203 201 198 197 198 199 201 202
194 197 197 194 196 199 197 192 187 184 183 183 188 197 203 205 206 206 206 204 202 205 209 211 216 221 226 231 231 229 229 226 222 218 213 211 212 212 212 212 212 214 216 218 220 222 224 225 222 216 210 205 205 206 205 203 201 200 200 200 201 202
148 153 157 172 183 188 189 185 177 173 174 176 182 195 211 217 210 204 203 201 199 201 206 209 215 221 225 230 231 229 227 225 223 220 214 209 207 206 208 210 213 217 221 224 225 226 226 227 226 221 213 207 207 208 208 208 207 206 205 204 204 205
141 143 148 161 172 179 182 179 171 166 168 173 179 189 203 210 204 200 198 195 193 197 202 207 213 220 224 226 226 225 223 222 221 220 214 209 208 207 209 213 217 220 223 226 228 228 227 227 227 224 217 211 209 210 212 213 213 212 210 208 206 208
132 133 136 146 162 171 176 173 165 159 162 166 170 177 179 179 187 191 191 189 190 193 198 204 211 217 221 222 222 221 220 218 216 215 212 211 211 211 212 216 219 221 222 224 225 226 225 225 225 223 220 215 212 211 213 215 215 214 214 213 213 214
117 113 112 119 137 152 166 170 160 151 151 154 160 168 169 169 177 181 179 181 183 186 191 197 204 211 216 218 217 216 216 215 214 214 215 215 215 215 215 218 220 220 220 223 223 222 222 222 223 224 223 220 216 214 213 214 216 217 218 220 222 223
117 111 104 102 113 126 144 160 153 140 135 143 158 166 164 166 173 172 169 170 173 176 181 185 192 203 209 213 215 213 214 215 214 214 216 217 217 217 216 218 219 219 220 222 223 222 221 222 223 225 224 223 221 218 216 216 218 221 223 225 226 228
114 110 101 93 98 107 115 129 134 126 124 137 153 158 159 163 163 157 155 157 158 161 168 169 172 184 191 198 206 211 216 219 216 214 215 213 214 217 217 218 219 219 220 224 226 225 224 224 225 227 227 227 225 223 221 220 221 223 226 229 229 230
108 104 93 83 85 95 102 107 111 111 115 125 131 137 145 149 145 140 139 139 138 140 147 151 154 161 168 178 191 201 211 219 218 216 216 213 213 215 216 218 220 221 222 226 228 229 229 229 229 229 229 229 228 227 226 224 224 226 228 230 230 230
103 97 87 79 80 90 96 97 98 103 109 111 114 125 132 130 129 127 125 124 126 128 130 135 141 150 157 164 177 194 207 216 218 220 224 227 227 226 225 225 227 229 231 232 232 231 229 230 232 233 233 233 232 231 229 226 226 227 228 229 230 229
102 97 89 84 87 92 93 92 94 101 106 108 111 122 125 122 121 119 116 116 120 121 121 124 126 135 148 155 162 180 207 225 227 228 236 243 246 245 243 244 245 246 247 245 242 238 234 235 241 243 241 238 236 235 233 231 229 229 229 230 230 229
106 102 97 94 97 98 95 93 95 98 102 105 109 118 123 123 121 118 115 117 119 119 120 123 123 120 125 140 159 175 194 239 250 250 252 256 258 257 253 254 258 262 264 262 258 254 250 252 258 259 254 248 244 242 241 239 236 234 231 230 230 228
110 108 104 103 104 102 98 97 97 98 102 105 108 114 121 123 122 119 118 119 120 120 121 124 127 123 114 117 142 170 194 246 277 287 280 275 273 269 263 260 261 262 264 267 268 266 263 262 265 268 266 262 256 250 247 245 242 238 235 232 230 227
114 112 112 112 110 106 103 100 98 99 104 107 108 112 117 120 120 118 117 119 120 120 118 117 122 123 117 112 114 115 113 327 335 341 334 320 304 290 279 273 270 266 265 265 266 267 267 266 266 269 270 269 266 260 255 251 247 243 240 236 232 229
116 116 117 116 113 110 107 102 100 104 108 109 111 114 115 116 116 114 114 118 120 118 115 114 116 116 115 111 107 102 93 71 36 7 352 343 334 325 315 301 291 284 277 272 269 268 268 267 267 268 270 270 269 266 262 257 252 247 243 237 231 229
118 117 118 118 116 113 109 104 103 108 112 113 117 120 118 117 116 115 115 118 120 119 116 114 114 114 111 108 104 99 94 87 71 29 343 332 330 331 330 325 320 313 303 292 285 279 274 272 269 267 267 268 268 268 267 262 255 248 242 237 233 233
114 113 115 116 114 111 107 103 103 110 114 117 121 123 121 119 118 118 118 118 119 119 116 115 115 115 111 108 104 99 94 87 69 41 13 349 336 327 321 319 320 319 315 312 307 297 288 282 276 272 269 267 266 267 266 258 246 237 234 233 235 238
111 109 111 110 108 107 103 99 104 112 115 118 124 125 121 120 120 120 120 119 118 117 116 114 113 111 107 104 100 94 91 85 65 40 15 347 330 321 318 319 320 317 312 311 312 309 303 295 287 281 276 272 268 266 258 244 237 234 233 234 235 238